Location: Dead Woman Crossing
(43.5369°N, 106.3228°W)
Time: 13:31:29
(UTC+00:00)

Envisat - Visible Passes

Search period start: 24 January 2022 00:00
Search period end: 03 February 2022 00:00
Orbit: 764 x 766 km, 98.2° (Epoch: 23 January)

Date Brightness Start Highest point End Pass type
(mag) Time Alt. Az. Time Alt. Az. Time Alt. Az.
24 Jan 5.8 10:39:18 10° ENE 10:41:52 14° E 10:44:25 10° ESE visible
24 Jan 2.8 12:16:20 10° N 12:21:25 74° WNW 12:26:28 10° SSW visible
24 Jan 4.8 13:58:38 10° NW 13:59:31 10° NW 14:00:24 10° WNW visible
25 Jan 3.7 11:39:33 10° NNE 11:44:31 51° E 11:49:27 10° S visible
25 Jan 4.1 13:19:23 10° NNW 13:23:10 21° WNW 13:26:56 10° WSW visible
26 Jan 6.1 00:37:18 10° WSW 00:39:41 13° W 00:42:06 10° WNW visible
26 Jan 5.1 11:03:20 10° NE 11:07:25 24° E 11:11:29 10° SSE visible
26 Jan 3.3 12:41:48 10° N 12:46:36 43° WNW 12:51:22 10° SW visible
27 Jan 6.0 10:29:09 10° ENE 10:30:07 10° E 10:31:05 10° E visible
27 Jan 2.9 12:04:43 10° NNE 12:09:50 88° ESE 12:14:55 10° SSW visible
27 Jan 4.6 13:45:48 10° NNW 13:48:06 13° WNW 13:50:24 10° W visible
28 Jan 4.2 11:28:05 10° NNE 11:32:53 40° E 11:37:38 10° SSE visible
28 Jan 3.9 13:07:30 10° N 13:11:41 26° WNW 13:15:51 10° WSW visible
29 Jan 5.4 10:52:09 10° NE 10:55:43 19° E 10:59:16 10° SE visible
29 Jan 3.0 12:30:06 10° N 12:35:04 54° WNW 12:40:00 10° SSW visible
30 Jan 3.2 11:53:08 10° NNE 11:58:14 71° ESE 12:03:18 10° S visible
30 Jan 4.4 13:33:36 10° NNW 13:36:40 16° WNW 13:39:44 10° W visible
31 Jan 4.6 11:16:40 10° NNE 11:21:13 32° E 11:25:44 10° SSE visible
31 Jan 3.6 12:55:42 10° N 13:00:11 32° WNW 13:04:40 10° SW visible
01 Feb 5.7 10:41:09 10° NE 10:43:59 15° E 10:46:49 10° ESE visible
01 Feb 2.9 12:18:26 10° N 12:23:30 69° WNW 12:28:32 10° SSW visible
02 Feb 3.6 11:41:37 10° NNE 11:46:37 55° E 11:51:35 10° S visible
02 Feb 4.2 13:21:34 10° NNW 13:25:12 20° WNW 13:28:51 10° WSW visible
